Starlink 33677

operational
NORAD ID: 63410 Int'l Des: 2025-065 Owner: SPXS Country: US Constellation: starlink
LEOCIRCULAR

Starlink 33677について

説明を読み込み中...

リアルタイム位置

3D地球を読み込み中...

次回通過

高度履歴

Altitude vs Time

uPlot chart will show altitude changes over time

軌道要素

1 63410U 25065M 25350.34134037 .00018800 00000-0 69049-3 0 9990
2 63410 42.9972 217.7141 0001946 267.2173 92.8456 15.27601096 40094
Epoch: Dec 16, 2025 • Age: 13 hours

現在のステータス

高度 483.0 km
速度 7.63 km/s
衛星直下点 20.74°N, 35.91°W
打ち上げ日 Mar 31, 2025
運用期間 0.7 years
タイプ internet

技術仕様

分類 Payload
質量 575.00 kg
乾燥質量 530.00 kg
総質量 575.00 kg
長さ 0.30 m
直径 4.10 m
スパン 29.00 m
形状 Box + pan
製造者 SPXS
バスタイプ Starlink V2MO
フェーズステータス In Orbit
所有者/国 SPXS/US

大規模コンステレーション

Loading constellations...